Location: Argonnex
(45.9500°N, 6.1333°E)
Time: 06:04:52
(UTC+00:00)

ATLAS 2AS CENTAUR R/B - Pass Details

Date: 28 January 2023
Orbit: 986 x 1226 km, 63.7° (Epoch: 31 January)

Event Time Altitude Azimuth Distance (km) Brightness Sun altitude
Rises 19:10:43 0° 321° (NW) 3,974 6.2 -27.1°
Reaches altitude 10° 19:13:29 10° 321° (NW) 2,976 5.5 -27.6°
Maximum altitude 19:20:32 88° 233° (SW) 1,065 2.5 -28.8°
Enters shadow 19:21:31 68° 149° (SSE) 1,127 2.6 -29.0°
